{"data":{"norad_id":67241,"intl_designator":"2025-311F","name":"HULIANWANG DIGUI-133","alt_names":[],"object_type":"PAYLOAD","status":"ACTIVE","operator":null,"country":"PRC","launch_date":"2025-12-25","launch_site_code":"WSC","launch_vehicle":null,"mission":null,"orbit_class":"UNKNOWN","rcs_meters":null,"size_class":null,"mass_kg":null,"dimensions":null,"purposes":[],"wikipedia_slug":null,"has_3d_model":false,"image_url":null,"decayed_at":null,"tle_current":{"epoch":"2026-09-20T21:58:13.872576Z","epoch_age_seconds":67182,"freshness":"FRESH","line1":"1 67241U 25311F   26263.91543834 -.00000099  00000+0  53762-4 0  9993","line2":"2 67241  50.0094 132.5112 0000195 355.8781   4.2089 13.29327825 36078","mean_motion":13.29327825,"eccentricity":1.95e-5,"inclination_deg":50.0094,"raan_deg":132.5112,"arg_perigee_deg":355.8781,"mean_anomaly_deg":4.2089,"bstar":5.3762e-5,"rev_number":3607,"period_min":108.32542379078,"perigee_km":1149.1528973477,"apogee_km":1149.4464673783,"semimajor_km":7527.436682363,"source":"CELESTRAK","updated_at":"2026-09-21T09:00:16.509354Z"}}}